This is the latest recevied weather packets stored in our database for station/object PP5ABU-13. If no packets are shown the sender has not sent any weather packets the latest 10 day(s).
| Time | Temp. | Humidity | Pressure | Rain* | Wind** | Luminosity | Snow |
|---|---|---|---|---|---|---|---|
| 1777896904 | 20.56° C | 75% | 1018.9 hPa | 0 mm | - | - | - |
| 1777896004 | 20.56° C | 78% | 1018.8 hPa | 0 mm | - | - | - |
| 1777895104 | 19.44° C | 82% | 1018.8 hPa | 0 mm | - | - | - |
| 1777894204 | 19.44° C | 84% | 1018.8 hPa | 0 mm | - | - | - |
| 1777893303 | 18.89° C | 86% | 1018.6 hPa | 0 mm | - | - | - |
| 1777892404 | 18.33° C | 89% | 1018.7 hPa | 0 mm | - | - | - |
| 1777891504 | 18.33° C | 90% | 1018.4 hPa | 0 mm | - | - | - |
| 1777890604 | 17.78° C | 90% | 1018.4 hPa | 0 mm | - | - | - |
| 1777889704 | 17.78° C | 90% | 1018.5 hPa | 0 mm | - | - | - |
| 1777888805 | 17.78° C | 90% | 1018.1 hPa | 0 mm | - | - | - |
| 1777887904 | 17.78° C | 90% | 1017.7 hPa | 0 mm | - | - | - |
| 1777887004 | 17.22° C | 92% | 1017.8 hPa | 0 mm | - | - | - |
| 1777886105 | 17.22° C | 91% | 1017.7 hPa | 0 mm | - | - | - |
| 1777885204 | 17.22° C | 90% | 1017.5 hPa | 0 mm | - | - | - |
| 1777884304 | 17.22° C | 90% | 1017.2 hPa | 0 mm | - | - | - |
| 1777883404 | 17.22° C | 90% | 1017.3 hPa | 0 mm | - | - | - |
| 1777882504 | 17.22° C | 90% | 1017.1 hPa | 0 mm | - | - | - |
| 1777881604 | 17.22° C | 90% | 1017.2 hPa | 0 mm | - | - | - |
| 1777880704 | 17.22° C | 89% | 1017.5 hPa | 0 mm | - | - | - |
| 1777879804 | 17.22° C | 89% | 1017.4 hPa | 0 mm | - | - | - |
| 1777878904 | 17.22° C | 88% | 1017.5 hPa | 0 mm | - | - | - |
| 1777878004 | 17.22° C | 87% | 1017.5 hPa | 0 mm | - | - | - |
| 1777877104 | 17.22° C | 86% | 1017.5 hPa | 0 mm | - | - | - |
| 1777876205 | 17.22° C | 86% | 1017.9 hPa | 0 mm | - | - | - |
| 1777875304 | 17.22° C | 87% | 1018 hPa | 0 mm | - | - | - |
* Rain latest hour (hover to see other rain measurements)
** Current wind speed in m/s (hover to see current wind gust speed)